Cambridge, MN

2:59 AM CST on December 05, 2016 (GMT -0600)
Cambridge Municipal

Weather History for KCBG - March, 2013

Change the Weather History Date:

Friday, March 22, 2013

  Actual Average Record
Temperature  
Mean Temperature 14 °F -  
Max Temperature 33 °F 39 °F 62 °F (2012)
Min Temperature -4 °F 20 °F -5 °F (1974)
Degree Days  
Heating Degree Days 50    
Moisture  
Dew Point 11 °F    
Average Humidity 77    
Maximum Humidity 92    
Minimum Humidity 60    
Precipitation  
Precipitation 0.00 in - - ()
Sea Level Pressure  
Sea Level Pressure 30.04 in    
Wind  
Wind Speed 1 mph (NE)    
Max Wind Speed 6 mph    
Max Gust Speed -    
Visibility 10 miles    
Events      
Averages and records for this station are not official NWS values.
T = Trace of Precipitation, MM = Missing Value Source: NWS Daily Summary

Daily Weather History Graph

Daily Weather History Graph

Search for Another Location

Airport or City:

Trip Planner

Search our weather history database for the weather conditions in past years. The results will help you decide how hot, cold, wet, or windy it might be!

Date:

Astronomy

Mar. 22, 2013 Rise Set
Actual Time 7:11 AM CDT 7:28 PM CDT
Civil Twilight 6:42 AM CDT 7:58 PM CDT
Nautical Twilight 6:07 AM CDT 8:33 PM CDT
Astronomical Twilight 5:31 AM CDT 9:09 PM CDT
Moon 2:44 PM CDT (3/22) 4:25 AM CDT (3/22)
Length of Visible Light 13h 16m
Length of Day
12h 16m
Waxing Gibbous, 77% of the Moon is Illuminated
Mar 22
Waxing Gibbous
Mar 27
Full
Apr 2
Last Quarter
Apr 10
New
Apr 18
First Quarter

Hourly Weather History & Observations

Time (CDT) Temp. Windchill Dew Point Humidity Pressure Visibility Wind Dir Wind Speed Gust Speed Precip Events Conditions
12:16 AM 8.6 °F 2.0 °F 5.0 °F 85% 30.05 in 10.0 mi West 3.5 mph - N/A   Clear
12:35 AM 10.4 °F - 5.0 °F 79% 30.05 in 10.0 mi Calm Calm - N/A   Clear
12:56 AM 8.6 °F - 5.0 °F 85% 30.06 in 10.0 mi Calm Calm - N/A   Clear
1:15 AM 6.8 °F - 3.2 °F 85% 30.06 in 10.0 mi Calm Calm - N/A   Clear
1:35 AM 6.8 °F - 1.4 °F 79% 30.06 in 10.0 mi Calm Calm - N/A   Clear
1:56 AM 6.8 °F - 1.4 °F 79% 30.06 in 10.0 mi Calm Calm - N/A   Clear
2:15 AM 6.8 °F - 3.2 °F 85% 30.06 in 10.0 mi Calm Calm - N/A   Clear
2:35 AM 3.2 °F - 1.4 °F 92% 30.05 in 10.0 mi Calm Calm - N/A   Clear
2:55 AM 6.8 °F - 3.2 °F 85% 30.05 in 10.0 mi Calm Calm - N/A   Clear
3:16 AM 3.2 °F - -0.4 °F 85% 30.05 in 10.0 mi Calm Calm - N/A   Clear
3:36 AM 3.2 °F - -0.4 °F 85% 30.05 in 10.0 mi Calm Calm - N/A   Clear
3:55 AM 3.2 °F - 1.4 °F 92% 30.05 in 10.0 mi Calm Calm - N/A   Clear
4:16 AM 1.4 °F - -2.2 °F 85% 30.05 in 10.0 mi Calm Calm - N/A   Clear
4:36 AM 1.4 °F - -2.2 °F 85% 30.04 in 10.0 mi Calm Calm - N/A   Clear
4:55 AM 1.4 °F - -2.2 °F 85% 30.04 in 10.0 mi Calm Calm - N/A   Clear
5:16 AM 1.4 °F - -2.2 °F 85% 30.04 in 10.0 mi Calm Calm - N/A   Clear
5:36 AM -0.4 °F - -2.2 °F 92% 30.04 in 10.0 mi Calm Calm - N/A   Clear
5:55 AM -0.4 °F - -2.2 °F 92% 30.04 in 10.0 mi Calm Calm - N/A   Clear
6:16 AM -0.4 °F - -2.2 °F 92% 30.04 in 10.0 mi Calm Calm - N/A   Clear
6:55 AM -2.2 °F - -4.0 °F 92% 30.04 in 10.0 mi Calm Calm - N/A   Clear
7:16 AM -2.2 °F - -5.8 °F 85% 30.05 in 10.0 mi Calm Calm - N/A   Clear
7:36 AM -4.0 °F - -7.6 °F 85% 30.05 in 10.0 mi Calm Calm - N/A   Clear
7:55 AM -2.2 °F - -7.6 °F 78% 30.05 in 10.0 mi Calm Calm - N/A   Clear
8:16 AM -0.4 °F - -5.8 °F 78% 30.05 in 10.0 mi Calm Calm - N/A   Clear
8:36 AM 1.4 °F - -0.4 °F 92% 30.05 in 10.0 mi Calm Calm - N/A   Clear
8:55 AM 5.0 °F - 1.4 °F 85% 30.05 in 10.0 mi Calm Calm - N/A   Clear
9:15 AM 10.4 °F - 6.8 °F 85% 30.04 in 10.0 mi Calm Calm - N/A   Clear
9:36 AM 15.8 °F 8.6 °F 8.6 °F 73% 30.04 in 10.0 mi North 4.6 mph - N/A   Clear
9:56 AM 15.8 °F 10.2 °F 10.4 °F 79% 30.04 in 10.0 mi North 3.5 mph - N/A   Clear
10:15 AM 17.6 °F - 12.2 °F 79% 30.04 in 10.0 mi Calm Calm - N/A   Clear
10:36 AM 19.4 °F - 12.2 °F 74% 30.04 in 10.0 mi Calm Calm - N/A   Clear
10:56 AM 21.2 °F - 14.0 °F 74% 30.04 in 10.0 mi Calm Calm - N/A   Clear
11:16 AM 24.8 °F - 15.8 °F 69% 30.04 in 10.0 mi Calm Calm - N/A   Clear
11:35 AM 26.6 °F - 17.6 °F 69% 30.03 in 10.0 mi Calm Calm - N/A   Clear
11:56 AM 26.6 °F - 17.6 °F 69% 30.04 in 10.0 mi Calm Calm - N/A   Clear
12:15 PM 26.6 °F - 17.6 °F 69% 30.03 in 10.0 mi Calm Calm - N/A   Clear
12:35 PM 28.4 °F 23.3 °F 19.4 °F 69% 30.03 in 10.0 mi East 4.6 mph - N/A   Clear
12:55 PM 28.4 °F - 19.4 °F 69% 30.03 in 10.0 mi Calm Calm - N/A   Clear
1:15 PM 30.2 °F 24.3 °F 19.4 °F 64% 30.02 in 10.0 mi NE 5.8 mph - N/A   Clear
1:36 PM 30.2 °F 25.4 °F 19.4 °F 64% 30.02 in 10.0 mi NE 4.6 mph - N/A   Clear
1:56 PM 30.2 °F 26.7 °F 19.4 °F 64% 30.02 in 10.0 mi NE 3.5 mph - N/A   Clear
2:15 PM 30.2 °F 26.7 °F 21.2 °F 69% 30.01 in 10.0 mi NNE 3.5 mph - N/A   Clear
2:36 PM 30.2 °F 26.7 °F 21.2 °F 69% 30.01 in 10.0 mi NE 3.5 mph - N/A   Clear
2:56 PM 30.2 °F - 21.2 °F 69% 30.01 in 10.0 mi Calm Calm - N/A   Clear
3:15 PM 32.0 °F - 21.2 °F 64% 30.01 in 10.0 mi Calm Calm - N/A   Clear
3:36 PM 30.2 °F - 21.2 °F 69% 30.02 in 10.0 mi Calm Calm - N/A   Clear
3:56 PM 32.0 °F 27.5 °F 21.2 °F 64% 30.01 in 10.0 mi East 4.6 mph - N/A   Clear
4:15 PM 33.8 °F - 23.0 °F 65% 30.01 in 10.0 mi Calm Calm - N/A   Clear
4:36 PM 32.0 °F - 21.2 °F 64% 30.01 in 10.0 mi Calm Calm - N/A   Clear
4:56 PM 33.8 °F - 23.0 °F 65% 30.01 in 10.0 mi Calm Calm - N/A   Clear
5:15 PM 33.8 °F - 23.0 °F 65% 30.02 in 10.0 mi Calm Calm - N/A   Clear
5:36 PM 33.8 °F - 21.2 °F 60% 30.02 in 10.0 mi Calm Calm - N/A   Clear
5:56 PM 32.0 °F - 21.2 °F 64% 30.02 in 10.0 mi Calm Calm - N/A   Clear
6:15 PM 32.0 °F - 21.2 °F 64% 30.02 in 10.0 mi Calm Calm - N/A   Clear
6:36 PM 32.0 °F - 21.2 °F 64% 30.02 in 10.0 mi Calm Calm - N/A   Clear
6:56 PM 30.2 °F - 21.2 °F 69% 30.03 in 10.0 mi Calm Calm - N/A   Clear
7:15 PM 28.4 °F - 19.4 °F 69% 30.03 in 10.0 mi Calm Calm - N/A   Clear
7:36 PM 28.4 °F - 19.4 °F 69% 30.03 in 10.0 mi Calm Calm - N/A   Clear
7:55 PM 24.8 °F - 17.6 °F 74% 30.03 in 10.0 mi Calm Calm - N/A   Clear
8:16 PM 24.8 °F - 17.6 °F 74% 30.04 in 10.0 mi Calm Calm - N/A   Clear
8:36 PM 23.0 °F - 17.6 °F 80% 30.04 in 10.0 mi Calm Calm - N/A   Clear
8:56 PM 24.8 °F - 17.6 °F 74% 30.04 in 10.0 mi Calm Calm - N/A   Clear
9:15 PM 21.2 °F - 15.8 °F 80% 30.04 in 10.0 mi Calm Calm - N/A   Clear
9:35 PM 21.2 °F - 15.8 °F 80% 30.05 in 10.0 mi Calm Calm - N/A   Clear
9:56 PM 21.2 °F - 15.8 °F 80% 30.06 in 10.0 mi Calm Calm - N/A   Clear
10:15 PM 19.4 °F - 14.0 °F 80% 30.06 in 10.0 mi Calm Calm - N/A   Clear
10:36 PM 23.0 °F - 17.6 °F 80% 30.06 in 10.0 mi Calm Calm - N/A   Clear
10:56 PM 19.4 °F - 15.8 °F 86% 30.06 in 10.0 mi Calm Calm - N/A   Clear
11:15 PM 19.4 °F - 15.8 °F 86% 30.07 in 10.0 mi Calm Calm - N/A   Clear
11:36 PM 19.4 °F - 14.0 °F 80% 30.07 in 10.0 mi Calm Calm - N/A   Clear
11:55 PM 19.4 °F - 15.8 °F 86% 30.07 in 10.0 mi Calm Calm - N/A   Clear